Location: Newark
(40.7060°N, 73.9980°W)
Time: 13:45:37
(UTC+00:00)

X-37B - Pass Details

Date: 16 March 2021
Orbit: 380 x 394 km, 45.0° (Epoch: 07 April)

Event Time Altitude Azimuth Distance (km) Brightness Sun altitude
Rises 23:46:40 0° 268° (W) 2,264 6.7 -8.9°
Reaches altitude 10° 23:48:47 10° 275° (W) 1,413 5.1 -9.3°
Maximum altitude 23:51:50 43° 349° (N) 560 1.5 -9.8°
Enters shadow 23:54:42 12° 62° (ENE) 1,337 2.8 -10.4°
